| time (UTC) | temp C | wind direction | speed KPH | gust KPH | rain 1hr cm | rain 24hr cm | rain mn cm | humidity % | barometer mb |
| 20260906173044 | 25 | 173 | 6.4 | 14.5 | 0.00 | 0.00 | 0.00 | 63 | 1029.9 |
| 20260906173022 | 25 | 173 | 4.8 | 14.5 | 0.00 | 0.00 | 0.00 | 64 | 1020.9 |
| 20260906171543 | 24 | 178 | 4.8 | 19.3 | 0.00 | 0.00 | 0.00 | 62 | 1030.4 |
| 20260906171521 | 24 | 178 | 6.4 | 17.7 | 0.00 | 0.00 | 0.00 | 63 | 1021.1 |
| 20260906170050 | 24 | 202 | 8.0 | 16.1 | 0.00 | 0.00 | 0.00 | 63 | 1030.7 |
| 20260906170019 | 24 | 202 | 8.0 | 16.1 | 0.00 | 0.00 | 0.00 | 63 | 1021.4 |
| 20260906164547 | 24 | 109 | 6.4 | 14.5 | 0.00 | 0.00 | 0.00 | 63 | 1030.7 |
| 20260906164515 | 24 | 101 | 6.4 | 12.9 | 0.00 | 0.00 | 0.00 | 64 | 1021.4 |
| 20260906163044 | 23 | 166 | 4.8 | 11.3 | 0.00 | 0.00 | 0.00 | 66 | 1030.7 |
| 20260906163012 | 23 | 166 | 4.8 | 11.3 | 0.00 | 0.00 | 0.00 | 66 | 1021.4 |
| 20260906161543 | 23 | 164 | 6.4 | 14.5 | 0.00 | 0.00 | 0.00 | 67 | 1030.9 |
| 20260906161510 | 23 | 159 | 8.0 | 14.5 | 0.00 | 0.00 | 0.00 | 67 | 1021.5 |
| 20260906160050 | 23 | 0 | 4.8 | 14.5 | 0.00 | 0.00 | 0.00 | 68 | 1030.9 |
| 20260906160007 | 23 | 118 | 4.8 | 11.3 | 0.00 | 0.00 | 0.00 | 66 | 1021.5 |
| 20260906154550 | 22 | 165 | 4.8 | 12.9 | 0.00 | 0.00 | 0.00 | 67 | 1030.7 |
| 20260906154502 | 22 | 160 | 3.2 | 12.9 | 0.00 | 0.00 | 0.00 | 69 | 1021.4 |
| 20260906153108 | 22 | 153 | 8.0 | 17.7 | 0.00 | 0.00 | 0.00 | 68 | 1030.7 |
| 20260906153100 | 22 | 178 | 8.0 | 14.5 | 0.00 | 0.00 | 0.00 | 69 | 1021.4 |
| 20260906151601 | 22 | 126 | 3.2 | 12.9 | 0.00 | 0.00 | 0.00 | 70 | 1021.5 |
| 20260906151558 | 21 | 125 | 4.8 | 12.9 | 0.00 | 0.00 | 0.00 | 71 | 1030.8 |
| 20260906150055 | 21 | 159 | 6.4 | 12.9 | 0.00 | 0.00 | 0.00 | 71 | 1021.4 |
| 20260906150046 | 21 | 161 | 6.4 | 14.5 | 0.00 | 0.00 | 0.00 | 70 | 1030.7 |
| 20260906144554 | 21 | 171 | 4.8 | 11.3 | 0.00 | 0.00 | 0.00 | 73 | 1030.6 |
| 20260906143053 | 20 | 153 | 4.8 | 11.3 | 0.00 | 0.00 | 0.00 | 75 | 1021.2 |
| 20260906143051 | 20 | 149 | 4.8 | 12.9 | 0.00 | 0.00 | 0.00 | 75 | 1030.4 |
| 20260906141548 | 20 | 188 | 3.2 | 12.9 | 0.00 | 0.00 | 0.00 | 79 | 1030.3 |
| 20260906141545 | 20 | 188 | 1.6 | 12.9 | 0.00 | 0.00 | 0.00 | 80 | 1021.1 |
| 20260906140047 | 20 | 150 | 3.2 | 8.0 | 0.00 | 0.00 | 0.00 | 80 | 1021.4 |
| 20260906140042 | 20 | 151 | 1.6 | 8.0 | 0.00 | 0.00 | 0.00 | 80 | 1030.6 |
| 20260906134604 | 19 | 0 | 1.6 | 11.3 | 0.00 | 0.00 | 0.00 | 85 | 1030.5 |
| 20260906134537 | 19 | 104 | 0.0 | 4.8 | 0.00 | 0.00 | 0.00 | 85 | 1021.4 |
| 20260906133054 | 18 | 34 | 1.6 | 4.8 | 0.00 | 0.00 | 0.00 | 91 | 1030.6 |
| 20260906133039 | 18 | 34 | 1.6 | 4.8 | 0.00 | 0.00 | 0.00 | 92 | 1021.5 |
| 20260906131547 | 16 | 0 | 0.0 | 0.0 | 0.00 | 0.00 | 0.00 | 97 | 1030.7 |
| 20260906131537 | 16 | 34 | 0.0 | 0.0 | 0.00 | 0.00 | 0.00 | 98 | 1021.6 |
| 20260906130044 | 16 | 0 | 0.0 | 0.0 | 0.00 | 0.00 | 0.00 | 98 | 1030.4 |
| 20260906130028 | 16 | 34 | 0.0 | 0.0 | 0.00 | 0.00 | 0.00 | 98 | 1021.3 |
| 20260906124551 | 15 | 0 | 0.0 | 0.0 | 0.00 | 0.00 | 0.00 | 98 | 1030.4 |
| 20260906124523 | 15 | 34 | 0.0 | 0.0 | 0.00 | 0.00 | 0.00 | 98 | 1021.3 |
| 20260906123056 | 15 | 0 | 0.0 | 0.0 | 0.00 | 0.00 | 0.00 | 97 | 1030.2 |
| 20260906123020 | 15 | 34 | 0.0 | 0.0 | 0.00 | 0.00 | 0.00 | 98 | 1021.1 |
| 20260906121546 | 15 | 0 | 0.0 | 0.0 | 0.00 | 0.00 | 0.00 | 97 | 1030.1 |
| 20260906121519 | 15 | 34 | 0.0 | 0.0 | 0.00 | 0.00 | 0.00 | 98 | 1020.8 |
| 20260906120047 | 15 | 0 | 0.0 | 0.0 | 0.00 | 0.00 | 0.00 | 98 | 1030.1 |
| 20260906120022 | 15 | 34 | 0.0 | 0.0 | 0.00 | 0.00 | 0.00 | 98 | 1020.7 |
| 20260906114553 | 14 | 0 | 0.0 | 0.0 | 0.00 | 0.00 | 0.00 | 97 | 1030.0 |
| 20260906114523 | 14 | 34 | 0.0 | 0.0 | 0.00 | 0.00 | 0.00 | 98 | 1020.7 |
| 20260906113051 | 14 | 0 | 0.0 | 0.0 | 0.00 | 0.00 | 0.00 | 97 | 1029.8 |
| 20260906113014 | 14 | 34 | 0.0 | 0.0 | 0.00 | 0.00 | 0.00 | 98 | 1020.6 |
| 20260906111547 | 14 | 0 | 0.0 | 0.0 | 0.00 | 0.00 | 0.00 | 97 | 1029.8 |
| 20260906111511 | 14 | 34 | 0.0 | 0.0 | 0.00 | 0.00 | 0.00 | 97 | 1020.4 |
| 20260906110050 | 15 | 0 | 0.0 | 0.0 | 0.00 | 0.00 | 0.00 | 97 | 1029.6 |
| 20260906110009 | 15 | 34 | 0.0 | 0.0 | 0.00 | 0.00 | 0.00 | 98 | 1020.3 |
| 20260906104548 | 15 | 0 | 0.0 | 0.0 | 0.00 | 0.00 | 0.00 | 97 | 1029.4 |
| 20260906104506 | 15 | 34 | 0.0 | 0.0 | 0.00 | 0.00 | 0.00 | 98 | 1020.1 |
| 20260906103057 | 16 | 0 | 0.0 | 0.0 | 0.00 | 0.00 | 0.00 | 97 | 1029.2 |
| 20260906103009 | 16 | 34 | 0.0 | 0.0 | 0.00 | 0.00 | 0.00 | 98 | 1020.0 |
| 20260906101554 | 16 | 0 | 0.0 | 0.0 | 0.00 | 0.00 | 0.00 | 97 | 1029.4 |
| 20260906101505 | 16 | 34 | 0.0 | 0.0 | 0.00 | 0.00 | 0.00 | 97 | 1020.1 |
| 20260906100049 | 16 | 0 | 0.0 | 0.0 | 0.00 | 0.00 | 0.00 | 97 | 1029.2 |
| 20260906100002 | 16 | 34 | 0.0 | 0.0 | 0.00 | 0.00 | 0.00 | 97 | 1019.9 |
| 20260906094610 | 16 | 34 | 0.0 | 0.0 | 0.00 | 0.00 | 0.00 | 98 | 1020.0 |
| 20260906094547 | 16 | 0 | 0.0 | 0.0 | 0.00 | 0.00 | 0.00 | 97 | 1029.1 |
| 20260906093117 | 16 | 34 | 0.0 | 0.0 | 0.00 | 0.00 | 0.00 | 97 | 1019.8 |
| 20260906093046 | 16 | 0 | 0.0 | 0.0 | 0.00 | 0.00 | 0.00 | 97 | 1029.1 |
| 20260906091559 | 17 | 34 | 0.0 | 0.0 | 0.00 | 0.00 | 0.00 | 97 | 1019.8 |
| 20260906091552 | 17 | 0 | 0.0 | 0.0 | 0.00 | 0.00 | 0.00 | 97 | 1029.1 |
| 20260906090136 | 17 | 34 | 0.0 | 0.0 | 0.00 | 0.00 | 0.00 | 98 | 1019.9 |
| 20260906084609 | 16 | 34 | 0.0 | 0.0 | 0.00 | 0.00 | 0.00 | 97 | 1020.1 |
| 20260906084548 | 16 | 0 | 0.0 | 0.0 | 0.00 | 0.00 | 0.00 | 97 | 1029.4 |
| 20260906083057 | 16 | 34 | 0.0 | 0.0 | 0.00 | 0.00 | 0.00 | 97 | 1020.0 |
| 20260906083043 | 16 | 0 | 0.0 | 0.0 | 0.00 | 0.00 | 0.00 | 96 | 1029.3 |
| 20260906081559 | 17 | 34 | 0.0 | 0.0 | 0.00 | 0.00 | 0.00 | 97 | 1019.9 |
| 20260906081542 | 17 | 0 | 0.0 | 0.0 | 0.00 | 0.00 | 0.00 | 97 | 1029.2 |
| 20260906080105 | 17 | 34 | 0.0 | 0.0 | 0.00 | 0.00 | 0.00 | 97 | 1020.0 |
| 20260906080043 | 17 | 0 | 0.0 | 0.0 | 0.00 | 0.00 | 0.00 | 96 | 1029.4 |
| 20260906074600 | 17 | 0 | 0.0 | 0.0 | 0.00 | 0.00 | 0.00 | 97 | 1029.4 |
| 20260906074556 | 17 | 34 | 0.0 | 0.0 | 0.00 | 0.00 | 0.00 | 97 | 1020.0 |
| 20260906073057 | 17 | 0 | 0.0 | 0.0 | 0.00 | 0.00 | 0.00 | 96 | 1029.3 |
| 20260906073051 | 17 | 34 | 0.0 | 0.0 | 0.00 | 0.00 | 0.00 | 97 | 1019.9 |
| 20260906071549 | 18 | 34 | 0.0 | 0.0 | 0.00 | 0.00 | 0.00 | 97 | 1019.8 |
| 20260906071544 | 18 | 0 | 0.0 | 0.0 | 0.00 | 0.00 | 0.00 | 96 | 1029.2 |
| 20260906070049 | 17 | 34 | 0.0 | 0.0 | 0.00 | 0.00 | 0.00 | 96 | 1019.8 |
| 20260906070047 | 17 | 0 | 0.0 | 0.0 | 0.00 | 0.00 | 0.00 | 96 | 1029.3 |
| 20260906064548 | 18 | 34 | 0.0 | 0.0 | 0.00 | 0.00 | 0.00 | 96 | 1019.8 |
| 20260906064543 | 18 | 0 | 0.0 | 0.0 | 0.00 | 0.00 | 0.00 | 95 | 1029.4 |
| 20260906063048 | 18 | 34 | 0.0 | 0.0 | 0.00 | 0.00 | 0.00 | 96 | 1019.9 |
| 20260906061550 | 18 | 0 | 0.0 | 0.0 | 0.00 | 0.00 | 0.00 | 96 | 1029.4 |
| 20260906060048 | 18 | 0 | 0.0 | 0.0 | 0.00 | 0.00 | 0.00 | 95 | 1029.5 |
| 20260906060043 | 18 | 34 | 0.0 | 0.0 | 0.00 | 0.00 | 0.00 | 96 | 1019.9 |
| 20260906054545 | 18 | 0 | 0.0 | 0.0 | 0.00 | 0.00 | 0.00 | 95 | 1029.6 |
| 20260906053048 | 18 | 0 | 0.0 | 0.0 | 0.00 | 0.00 | 0.00 | 95 | 1029.5 |
| 20260906053044 | 18 | 34 | 0.0 | 0.0 | 0.00 | 0.00 | 0.00 | 96 | 1019.9 |
| 20260906051556 | 18 | 0 | 0.0 | 3.2 | 0.00 | 0.00 | 0.00 | 95 | 1029.2 |
| 20260906051540 | 18 | 34 | 0.0 | 3.2 | 0.00 | 0.00 | 0.00 | 96 | 1019.8 |
| 20260906050058 | 18 | 34 | 1.6 | 4.8 | 0.00 | 0.00 | 0.00 | 95 | 1028.9 |
| 20260906050038 | 18 | 34 | 1.6 | 4.8 | 0.00 | 0.00 | 0.00 | 96 | 1019.5 |
| 20260906044549 | 18 | 0 | 0.0 | 1.6 | 0.00 | 0.00 | 0.00 | 95 | 1029.1 |
| 20260906044536 | 18 | 33 | 0.0 | 1.6 | 0.00 | 0.00 | 0.00 | 96 | 1019.8 |
| 20260906043056 | 18 | 0 | 0.0 | 3.2 | 0.00 | 0.00 | 0.00 | 95 | 1028.9 |
| 20260906043036 | 18 | 33 | 0.0 | 3.2 | 0.00 | 0.00 | 0.00 | 96 | 1019.6 |
| 20260906041545 | 18 | 32 | 0.0 | 1.6 | 0.00 | 0.00 | 0.00 | 96 | 1019.3 |
| 20260906041542 | 18 | 0 | 0.0 | 1.6 | 0.00 | 0.00 | 0.00 | 95 | 1028.6 |
| 20260906040053 | 18 | 0 | 0.0 | 3.2 | 0.00 | 0.00 | 0.00 | 95 | 1028.5 |
| 20260906040034 | 18 | 32 | 0.0 | 3.2 | 0.00 | 0.00 | 0.00 | 95 | 1019.2 |
| 20260906034607 | 18 | 32 | 0.0 | 3.2 | 0.00 | 0.00 | 0.00 | 95 | 1028.2 |
| 20260906034535 | 18 | 32 | 0.0 | 3.2 | 0.00 | 0.00 | 0.00 | 96 | 1018.9 |
| 20260906033045 | 18 | 0 | 0.0 | 3.2 | 0.00 | 0.00 | 0.00 | 95 | 1028.1 |
| 20260906033030 | 18 | 31 | 0.0 | 3.2 | 0.00 | 0.00 | 0.00 | 96 | 1018.8 |
| 20260906031548 | 18 | 31 | 0.0 | 3.2 | 0.00 | 0.00 | 0.00 | 95 | 1028.0 |
| 20260906031535 | 18 | 31 | 1.6 | 3.2 | 0.00 | 0.00 | 0.00 | 95 | 1018.5 |
| 20260906030051 | 18 | 31 | 0.0 | 3.2 | 0.00 | 0.00 | 0.00 | 94 | 1027.7 |
| 20260906030034 | 18 | 31 | 0.0 | 3.2 | 0.00 | 0.00 | 0.00 | 95 | 1018.3 |
| 20260906024547 | 18 | 0 | 0.0 | 4.8 | 0.00 | 0.00 | 0.00 | 94 | 1027.4 |
| 20260906024528 | 18 | 31 | 0.0 | 4.8 | 0.00 | 0.00 | 0.00 | 95 | 1018.1 |
| 20260906023051 | 18 | 0 | 0.0 | 3.2 | 0.00 | 0.00 | 0.00 | 93 | 1027.3 |
| 20260906023027 | 18 | 30 | 0.0 | 3.2 | 0.00 | 0.00 | 0.00 | 94 | 1018.0 |
| 20260906021550 | 18 | 0 | 0.0 | 4.8 | 0.00 | 0.00 | 0.00 | 93 | 1027.4 |
| 20260906021527 | 18 | 28 | 0.0 | 4.8 | 0.00 | 0.00 | 0.00 | 94 | 1017.9 |
| 20260906020055 | 19 | 0 | 0.0 | 1.6 | 0.00 | 0.00 | 0.00 | 94 | 1027.2 |
| 20260906020026 | 19 | 27 | 0.0 | 1.6 | 0.00 | 0.00 | 0.00 | 94 | 1017.7 |
| 20260906014543 | 19 | 0 | 0.0 | 0.0 | 0.00 | 0.00 | 0.00 | 93 | 1027.3 |
| 20260906014539 | 19 | 27 | 0.0 | 0.0 | 0.00 | 0.00 | 0.00 | 94 | 1017.7 |
| 20260906013058 | 19 | 0 | 0.0 | 0.0 | 0.00 | 0.00 | 0.00 | 93 | 1027.1 |
| 20260906013027 | 19 | 27 | 0.0 | 0.0 | 0.00 | 0.00 | 0.00 | 93 | 1017.5 |
| 20260906011550 | 20 | 0 | 0.0 | 0.0 | 0.00 | 0.00 | 0.00 | 91 | 1027.0 |
| 20260906011525 | 20 | 27 | 0.0 | 0.0 | 0.00 | 0.00 | 0.00 | 92 | 1017.5 |
| 20260906010052 | 20 | 27 | 0.0 | 0.0 | 0.00 | 0.00 | 0.00 | 90 | 1017.4 |
| 20260906010049 | 20 | 0 | 0.0 | 0.0 | 0.00 | 0.00 | 0.00 | 90 | 1026.9 |
| 20260906004543 | 20 | 0 | 0.0 | 0.0 | 0.00 | 0.00 | 0.00 | 90 | 1026.8 |
| 20260906004524 | 20 | 27 | 0.0 | 0.0 | 0.00 | 0.00 | 0.00 | 90 | 1017.3 |
| 20260906003054 | 21 | 0 | 0.0 | 0.0 | 0.00 | 0.00 | 0.00 | 86 | 1026.6 |
| 20260906003024 | 21 | 27 | 0.0 | 0.0 | 0.00 | 0.00 | 0.00 | 86 | 1017.1 |
| 20260906001551 | 22 | 0 | 0.0 | 0.0 | 0.00 | 0.00 | 0.00 | 84 | 1026.8 |
| 20260906001533 | 22 | 27 | 0.0 | 0.0 | 0.00 | 0.00 | 0.00 | 84 | 1017.2 |
| 20260906000053 | 22 | 0 | 0.0 | 0.0 | 0.00 | 0.00 | 0.00 | 83 | 1026.8 |
| 20260906000023 | 22 | 27 | 0.0 | 0.0 | 0.00 | 0.00 | 0.00 | 83 | 1017.4 |
| 20260905234545 | 23 | 0 | 0.0 | 0.0 | 0.00 | 0.00 | 0.00 | 78 | 1026.7 |
| 20260905234522 | 23 | 27 | 0.0 | 0.0 | 0.00 | 0.00 | 0.00 | 79 | 1017.1 |
| 20260905233051 | 25 | 0 | 0.0 | 3.2 | 0.00 | 0.00 | 0.00 | 71 | 1026.5 |
| 20260905233022 | 25 | 27 | 0.0 | 3.2 | 0.00 | 0.00 | 0.00 | 71 | 1017.1 |
| 20260905231555 | 25 | 0 | 0.0 | 1.6 | 0.00 | 0.00 | 0.00 | 74 | 1026.7 |
| 20260905231535 | 25 | 27 | 0.0 | 1.6 | 0.00 | 0.00 | 0.00 | 74 | 1017.1 |
| 20260905230049 | 25 | 27 | 1.6 | 4.8 | 0.00 | 0.00 | 0.00 | 69 | 1026.9 |
| 20260905230021 | 25 | 27 | 0.0 | 4.8 | 0.00 | 0.00 | 0.00 | 69 | 1017.3 |
| 20260905224553 | 25 | 0 | 0.0 | 3.2 | 0.00 | 0.00 | 0.00 | 69 | 1026.8 |
| 20260905224524 | 25 | 20 | 0.0 | 3.2 | 0.00 | 0.00 | 0.00 | 70 | 1017.3 |
| 20260905223052 | 25 | 20 | 0.0 | 4.8 | 0.00 | 0.00 | 0.00 | 69 | 1026.8 |
| 20260905223030 | 25 | 20 | 0.0 | 3.2 | 0.00 | 0.00 | 0.00 | 69 | 1017.2 |
| 20260905221554 | 25 | 0 | 0.0 | 4.8 | 0.00 | 0.00 | 0.00 | 68 | 1026.9 |
| 20260905221519 | 25 | 21 | 0.0 | 4.8 | 0.00 | 0.00 | 0.00 | 70 | 1017.3 |
| 20260905220045 | 25 | 0 | 0.0 | 4.8 | 0.00 | 0.00 | 0.00 | 68 | 1026.9 |
| 20260905220024 | 25 | 294 | 0.0 | 4.8 | 0.00 | 0.00 | 0.00 | 69 | 1017.4 |
| 20260905214553 | 25 | 0 | 0.0 | 4.8 | 0.00 | 0.00 | 0.00 | 69 | 1027.2 |
| 20260905214519 | 25 | 288 | 0.0 | 4.8 | 0.00 | 0.00 | 0.00 | 70 | 1017.6 |
| 20260905213100 | 25 | 286 | 1.6 | 6.4 | 0.00 | 0.00 | 0.00 | 70 | 1027.3 |
| 20260905213020 | 25 | 286 | 1.6 | 6.4 | 0.00 | 0.00 | 0.00 | 71 | 1017.8 |
| 20260905211543 | 24 | 0 | 0.0 | 6.4 | 0.00 | 0.00 | 0.00 | 72 | 1027.4 |
| 20260905211534 | 24 | 289 | 0.0 | 3.2 | 0.00 | 0.00 | 0.00 | 72 | 1017.9 |
| 20260905210058 | 25 | 0 | 0.0 | 12.9 | 0.00 | 0.00 | 0.00 | 71 | 1027.4 |
| 20260905210013 | 25 | 265 | 0.0 | 9.7 | 0.00 | 0.00 | 0.00 | 72 | 1018.0 |
| 20260905204553 | 24 | 213 | 3.2 | 9.7 | 0.00 | 0.00 | 0.00 | 72 | 1027.6 |
| 20260905204520 | 24 | 213 | 1.6 | 9.7 | 0.00 | 0.00 | 0.00 | 72 | 1018.1 |
| 20260905203058 | 24 | 142 | 0.0 | 4.8 | 0.00 | 0.00 | 0.00 | 74 | 1027.7 |
| 20260905203008 | 24 | 142 | 0.0 | 4.8 | 0.00 | 0.00 | 0.00 | 79 | 1018.1 |
| 20260905201544 | 23 | 0 | 1.6 | 6.4 | 0.00 | 0.00 | 0.00 | 75 | 1027.6 |
| 20260905201505 | 23 | 134 | 1.6 | 6.4 | 0.00 | 0.00 | 0.00 | 76 | 1018.1 |
| 20260905200051 | 23 | 121 | 1.6 | 9.7 | 0.00 | 0.00 | 0.00 | 77 | 1027.5 |
| 20260905194559 | 23 | 111 | 1.6 | 6.4 | 0.00 | 0.00 | 0.00 | 79 | 1018.3 |
| 20260905194545 | 23 | 115 | 1.6 | 6.4 | 0.00 | 0.00 | 0.00 | 78 | 1027.8 |
| 20260905193057 | 23 | 117 | 1.6 | 4.8 | 0.00 | 0.00 | 0.00 | 81 | 1018.4 |
| 20260905193042 | 23 | 117 | 1.6 | 4.8 | 0.00 | 0.00 | 0.00 | 80 | 1028.0 |
| 20260905191556 | 23 | 117 | 1.6 | 6.4 | 0.00 | 0.00 | 0.00 | 81 | 1018.4 |
| 20260905191548 | 23 | 117 | 1.6 | 6.4 | 0.00 | 0.00 | 0.00 | 81 | 1027.9 |
| 20260905190059 | 22 | 80 | 0.0 | 4.8 | 0.00 | 0.00 | 0.00 | 83 | 1018.4 |
| 20260905190048 | 22 | 78 | 0.0 | 4.8 | 0.00 | 0.00 | 0.00 | 82 | 1027.9 |
| 20260905184555 | 22 | 322 | 1.6 | 9.7 | 0.00 | 0.00 | 0.00 | 82 | 1018.4 |
| 20260905184549 | 22 | 322 | 1.6 | 9.7 | 0.00 | 0.00 | 0.00 | 81 | 1027.9 |
| 20260905183109 | 22 | 355 | 0.0 | 4.8 | 0.00 | 0.00 | 0.00 | 83 | 1018.5 |
| 20260905183044 | 22 | 0 | 0.0 | 4.8 | 0.00 | 0.00 | 0.00 | 82 | 1028.0 |
| 20260905181553 | 22 | 9 | 1.6 | 4.8 | 0.00 | 0.00 | 0.00 | 83 | 1028.0 |
| 20260905181551 | 22 | 9 | 1.6 | 4.8 | 0.00 | 0.00 | 0.00 | 83 | 1018.6 |
| 20260905180054 | 22 | 64 | 1.6 | 8.0 | 0.00 | 0.00 | 0.00 | 83 | 1018.5 |
| 20260905180049 | 22 | 0 | 1.6 | 8.0 | 0.00 | 0.00 | 0.00 | 83 | 1027.9 |
| 20260905174548 | 21 | 96 | 1.6 | 9.7 | 0.00 | 0.00 | 0.00 | 86 | 1018.5 |
| 20260905174545 | 21 | 96 | 3.2 | 9.7 | 0.00 | 0.00 | 0.00 | 85 | 1027.9 |